Capri, Italy

3:52 AM CET on February 26, 2017 (GMT +0100)
Capri

Weather History for LIQC - September, 2013

Change the Weather History Date:

Saturday, September 21, 2013

  Actual Average (LIRN) Record (LIRN)
Temperature  
Mean Temperature 76 °F -  
Max Temperature 87 °F 76 °F 84 °F (2013)
Min Temperature 65 °F 60 °F 53 °F (2008)
Cooling Degree Days 11    
Growing Degree Days 26 (Base 50)    
Moisture  
Dew Point 67 °F    
Average Humidity 81    
Maximum Humidity 100    
Minimum Humidity 50    
Precipitation  
Precipitation 0.00 in - - ()
Sea Level Pressure  
Sea Level Pressure 30.08 in    
Wind  
Wind Speed 2 mph ()    
Max Wind Speed 5 mph    
Max Gust Speed -    
Visibility 10.3 miles    
Events      
Averages and records for this station are not official NWS values.
T = Trace of Precipitation, MM = Missing Value Source: Averaged Metar Reports

Daily Weather History Graph

Daily Weather History Graph

Search for Another Location

Airport or City:

Trip Planner

Search our weather history database for the weather conditions in past years. The results will help you decide how hot, cold, wet, or windy it might be!

Date:

Astronomy

Sep. 21, 2013 Rise Set
Actual Time 6:49 AM CEST 7:02 PM CEST
Civil Twilight 6:22 AM CEST 7:29 PM CEST
Nautical Twilight 5:50 AM CEST 8:01 PM CEST
Astronomical Twilight 5:17 AM CEST 8:33 PM CEST
Moon 8:01 PM CEST (9/21) 8:50 AM CEST (9/21)
Length of Visible Light 13h 06m
Length of Day
12h 12m
Waning Gibbous, 95% of the Moon is Illuminated
Sep 21
Waning Gibbous
Sep 27
Last Quarter
Oct 5
New
Oct 12
First Quarter
Oct 19
Full

Hourly Weather History & Observations

Time (CEST) Temp. Heat Index Dew Point Humidity Pressure Visibility Wind Dir Wind Speed Gust Speed Precip Events Conditions
12:55 AM 68.0 °F - 68.0 °F 100% 30.01 in - North - - N/A   Scattered Clouds
2:00 AM 68 °F - 67 °F 96% 30.03 in 6 mi 3.5 mph - -   Partly Cloudy
5:55 AM 68.0 °F - 66.2 °F 94% 30.04 in - North - - N/A   Scattered Clouds
6:55 AM 68.0 °F - 66.2 °F 94% 30.04 in - North - - N/A   Scattered Clouds
7:55 AM 66.2 °F - 64.4 °F 94% 30.04 in - North - - N/A   Clear
8:00 AM 67 °F - 65 °F 90% 30.05 in 6 mi 3.5 mph - -  
9:55 AM 71.6 °F - 66.2 °F 83% 30.06 in - North - - N/A   Clear
10:55 AM 75.2 °F - 64.4 °F 69% 30.09 in - North - - N/A   Clear
11:00 AM 74 °F - 64 °F 63% 30.09 in 12 mi 2.3 mph - -   Clear
11:55 AM 75.2 °F - 62.6 °F 65% 30.09 in - North - - N/A   Clear
12:55 PM 73.4 °F - 64.4 °F 73% 30.09 in - North - - N/A   Clear
1:55 PM 77.0 °F - 68.0 °F 74% 30.09 in - North - - N/A   Clear
2:00 PM 78 °F - 68 °F 65% 30.09 in 12 mi 2.3 mph - -   Clear
2:55 PM 82.4 °F 86.3 °F 69.8 °F 66% 30.09 in - North - - N/A   Clear
3:55 PM 84.2 °F 86.6 °F 66.2 °F 55% 30.09 in - North - - N/A   Clear
4:55 PM 82.4 °F 85.4 °F 68.0 °F 62% 30.09 in - North - - N/A   Clear
5:00 PM 83 °F - 67 °F 50% 30.09 in 12 mi 4.6 mph - -   Partly Cloudy
5:55 PM 77.0 °F - 69.8 °F 78% 30.09 in - North - - N/A   Clear
6:55 PM 71.6 °F - 69.8 °F 94% 30.09 in - North - - N/A   Clear
7:55 PM 71.6 °F - 69.8 °F 94% 30.09 in - North - - N/A   Clear
8:00 PM 72 °F - 70 °F 93% 30.09 in 12 mi North 2.3 mph - -   Clear
8:55 PM 71.6 °F - 69.8 °F 94% 30.09 in - North - - N/A   Clear
9:55 PM 69.8 °F - 68.0 °F 94% 30.09 in - North - - N/A   Clear
10:55 PM 69.8 °F - 68.0 °F 94% 30.09 in - North - - N/A   Clear
11:00 PM 71 °F - 68 °F 89% 30.10 in 12 mi 1.2 mph - -   Scattered Clouds
11:55 PM 69.8 °F - 60.8 °F 73% 30.09 in - North - - N/A   Clear